^^
Your Local Weather - Clay, NY Station Historical Data
Daily Summary for October 13, 2017 Units:  English    Metric   Both
« Previous Day
Next Day »
Daily Weekly Monthly Yearly Custom
  High: Low: Average:
Temperature: 63.3 °F 48.0 °F 55.6 °F
Dew Point: 53.1 °F 42.1 °F 47.6 °F
Humidity: 90% 60% 75%
Wind Speed: 8.0mph 0.0mph 2.9mph
Wind Gust: 14.0mph - -
Wind- - SE
Pressure: 30.33 in 30.20 in -
Precipitation: 0.00 in    
Historical Graphs
 
 
Tabular Data for October 13, 2017
Time Temperature Dew Point Pressure Wind Wind Speed Wind Gust Humidity Rainfall Rate (Hourly) solar
00:02 49.9 °F 46.2 °F 30.32 in ENE 1.0 mph 1.0 mph 87% 0.00 in 0 W/m2
00:08 49.8 °F 46.1 °F 30.32 in ENE 1.0 mph 3.0 mph 87% 0.00 in 0 W/m2
00:14 49.7 °F 46.0 °F 30.32 in ENE 1.0 mph 2.0 mph 87% 0.00 in 0 W/m2
00:20 49.5 °F 46.1 °F 30.32 in Calm     88% 0.00 in 0 W/m2
00:26 49.4 °F 46.0 °F 30.32 in Calm   1.0 mph 88% 0.00 in 0 W/m2
00:32 49.2 °F 46.1 °F 30.32 in Calm     89% 0.00 in 0 W/m2
00:38 49.2 °F 46.1 °F 30.32 in Calm   1.0 mph 89% 0.00 in 0 W/m2
00:44 49.0 °F 45.9 °F 30.33 in Calm     89% 0.00 in 0 W/m2
00:50 48.8 °F 45.7 °F 30.32 in Calm   2.0 mph 89% 0.00 in 0 W/m2
00:56 48.7 °F 45.6 °F 30.32 in ENE 1.0 mph 3.0 mph 89% 0.00 in 0 W/m2
01:02 48.9 °F 46.1 °F 30.32 in ENE 1.0 mph 2.0 mph 90% 0.00 in 0 W/m2
01:08 48.9 °F 45.8 °F 30.32 in ENE 1.0 mph 2.0 mph 89% 0.00 in 0 W/m2
01:14 48.9 °F 45.8 °F 30.32 in NE 1.0 mph 1.0 mph 89% 0.00 in 0 W/m2
01:20 49.1 °F 46.0 °F 30.32 in ENE 1.0 mph 1.0 mph 89% 0.00 in 0 W/m2
01:26 49.4 °F 46.3 °F 30.32 in ENE 1.0 mph 2.0 mph 89% 0.00 in 0 W/m2
01:32 49.5 °F 46.1 °F 30.32 in ENE 1.0 mph 1.0 mph 88% 0.00 in 0 W/m2
01:38 49.7 °F 46.0 °F 30.32 in South 1.0 mph 3.0 mph 87% 0.00 in 0 W/m2
01:44 49.7 °F 46.0 °F 30.32 in East 1.0 mph 1.0 mph 87% 0.00 in 0 W/m2
01:50 49.8 °F 45.8 °F 30.32 in East 1.0 mph 1.0 mph 86% 0.00 in 0 W/m2
01:56 49.7 °F 45.7 °F 30.32 in SSE 1.0 mph 1.0 mph 86% 0.00 in 0 W/m2
02:02 49.7 °F 45.7 °F 30.32 in ENE 1.0 mph 1.0 mph 86% 0.00 in 0 W/m2
02:08 49.5 °F 45.2 °F 30.32 in ESE 1.0 mph 1.0 mph 85% 0.00 in 0 W/m2
02:14 49.4 °F 45.4 °F 30.32 in SE 1.0 mph 3.0 mph 86% 0.00 in 0 W/m2
02:20 49.4 °F 45.1 °F 30.32 in ENE 2.0 mph 2.0 mph 85% 0.00 in 0 W/m2
02:26 49.3 °F 45.0 °F 30.32 in East 2.0 mph 3.0 mph 85% 0.00 in 0 W/m2
02:32 49.2 °F 44.9 °F 30.32 in ENE 1.0 mph 3.0 mph 85% 0.00 in 0 W/m2
02:38 49.2 °F 44.6 °F 30.32 in East 2.0 mph 4.0 mph 84% 0.00 in 0 W/m2
02:44 49.2 °F 44.6 °F 30.32 in NE 3.0 mph 3.0 mph 84% 0.00 in 0 W/m2
02:50 49.1 °F 44.5 °F 30.32 in ENE 1.0 mph 1.0 mph 84% 0.00 in 0 W/m2
02:56 49.0 °F 44.4 °F 30.32 in East 1.0 mph 3.0 mph 84% 0.00 in 0 W/m2
03:02 48.8 °F 44.5 °F 30.32 in ENE 2.0 mph 2.0 mph 85% 0.00 in 0 W/m2
03:08 48.8 °F 44.5 °F 30.32 in ENE 1.0 mph 2.0 mph 85% 0.00 in 0 W/m2
03:14 48.7 °F 44.4 °F 30.32 in ENE 2.0 mph 5.0 mph 85% 0.00 in 0 W/m2
03:20 48.5 °F 44.2 °F 30.32 in ESE 2.0 mph 2.0 mph 85% 0.00 in 0 W/m2
03:26 48.4 °F 44.1 °F 30.32 in East 1.0 mph 3.0 mph 85% 0.00 in 0 W/m2
03:32 48.4 °F 44.1 °F 30.32 in East 2.0 mph 3.0 mph 85% 0.00 in 0 W/m2
03:38 48.5 °F 44.2 °F 30.32 in ENE 2.0 mph 6.0 mph 85% 0.00 in 0 W/m2
03:44 48.6 °F 44.3 °F 30.32 in ENE 1.0 mph 2.0 mph 85% 0.00 in 0 W/m2
03:50 48.6 °F 44.3 °F 30.32 in East 1.0 mph 1.0 mph 85% 0.00 in 0 W/m2
03:56 48.6 °F 44.3 °F 30.32 in East 1.0 mph 1.0 mph 85% 0.00 in 0 W/m2
04:02 48.7 °F 44.4 °F 30.32 in East 1.0 mph 5.0 mph 85% 0.00 in 0 W/m2
04:08 48.8 °F 44.5 °F 30.32 in ESE 1.0 mph 5.0 mph 85% 0.00 in 0 W/m2
04:14 48.9 °F 44.6 °F 30.32 in ENE 1.0 mph 2.0 mph 85% 0.00 in 0 W/m2
04:20 48.9 °F 44.3 °F 30.32 in NE 1.0 mph 1.0 mph 84% 0.00 in 0 W/m2
04:26 48.9 °F 44.3 °F 30.32 in East 1.0 mph 2.0 mph 84% 0.00 in 0 W/m2
04:32 48.9 °F 44.3 °F 30.32 in ENE 1.0 mph 1.0 mph 84% 0.00 in 0 W/m2
04:38 48.9 °F 44.3 °F 30.32 in East 2.0 mph 3.0 mph 84% 0.00 in 0 W/m2
04:46 48.9 °F 44.3 °F 30.32 in ESE 2.0 mph 2.0 mph 84% 0.00 in 0 W/m2
04:52 49.0 °F 44.1 °F 30.32 in ESE 2.0 mph 3.0 mph 83% 0.00 in 0 W/m2
04:58 48.9 °F 44.3 °F 30.32 in East 1.0 mph 1.0 mph 84% 0.00 in 0 W/m2
05:04 48.8 °F 44.2 °F 30.32 in East 1.0 mph 2.0 mph 84% 0.00 in 0 W/m2
05:10 48.9 °F 44.0 °F 30.32 in ESE 1.0 mph 3.0 mph 83% 0.00 in 0 W/m2
05:16 48.9 °F 44.0 °F 30.32 in East 2.0 mph 3.0 mph 83% 0.00 in 0 W/m2
05:22 48.9 °F 44.0 °F 30.32 in ESE 2.0 mph 3.0 mph 83% 0.00 in 0 W/m2
05:28 49.0 °F 44.1 °F 30.32 in East 1.0 mph 3.0 mph 83% 0.00 in 0 W/m2
05:34 49.0 °F 44.1 °F 30.32 in ESE 1.0 mph 3.0 mph 83% 0.00 in 0 W/m2
05:40 49.1 °F 44.2 °F 30.32 in NE 1.0 mph 3.0 mph 83% 0.00 in 0 W/m2
05:46 49.0 °F 43.7 °F 30.32 in ENE 1.0 mph 3.0 mph 82% 0.00 in 0 W/m2
05:52 48.9 °F 43.6 °F 30.32 in East 2.0 mph 2.0 mph 82% 0.00 in 0 W/m2
05:58 48.7 °F 43.8 °F 30.32 in NE 2.0 mph 5.0 mph 83% 0.00 in 0 W/m2
06:04 48.7 °F 43.8 °F 30.32 in NE 2.0 mph 4.0 mph 83% 0.00 in 0 W/m2
06:10 48.6 °F 43.7 °F 30.33 in East 2.0 mph 2.0 mph 83% 0.00 in 0 W/m2
06:16 48.5 °F 43.6 °F 30.33 in ESE 1.0 mph 2.0 mph 83% 0.00 in 0 W/m2
06:22 48.5 °F 43.6 °F 30.33 in ENE 1.0 mph 3.0 mph 83% 0.00 in 0 W/m2
06:30 48.4 °F 43.5 °F 30.33 in ENE 2.0 mph 2.0 mph 83% 0.00 in 0 W/m2
06:36 48.4 °F 43.5 °F 30.33 in ENE 1.0 mph 3.0 mph 83% 0.00 in 0 W/m2
06:42 48.4 °F 43.5 °F 30.33 in SE 2.0 mph 2.0 mph 83% 0.00 in 0 W/m2
06:48 48.3 °F 43.4 °F 30.33 in East 2.0 mph 2.0 mph 83% 0.00 in 0 W/m2
06:54 48.3 °F 43.4 °F 30.33 in East 1.0 mph 4.0 mph 83% 0.00 in 0 W/m2
07:00 48.3 °F 43.4 °F 30.33 in East 1.0 mph 2.0 mph 83% 0.00 in 0 W/m2
07:06 48.3 °F 43.4 °F 30.33 in ESE 2.0 mph 3.0 mph 83% 0.00 in 0 W/m2
07:12 48.2 °F 43.0 °F 30.33 in ENE 1.0 mph 2.0 mph 82% 0.00 in 0 W/m2
07:18 48.2 °F 43.0 °F 30.33 in SE 1.0 mph 3.0 mph 82% 0.00 in 0 W/m2
07:24 48.1 °F 42.9 °F 30.33 in ESE 2.0 mph 2.0 mph 82% 0.00 in 5 W/m2
07:30 48.1 °F 42.9 °F 30.33 in SE 1.0 mph 2.0 mph 82% 0.00 in 7 W/m2
07:36 48.1 °F 42.5 °F 30.33 in SE 1.0 mph 2.0 mph 81% 0.00 in 12 W/m2
07:42 48.1 °F 42.5 °F 30.33 in ENE 2.0 mph 3.0 mph 81% 0.00 in 18 W/m2
07:48 48.1 °F 42.9 °F 30.32 in East 1.0 mph 3.0 mph 82% 0.00 in 19 W/m2
07:54 48.1 °F 42.5 °F 30.33 in East 1.0 mph 2.0 mph 81% 0.00 in 21 W/m2
08:00 48.1 °F 42.5 °F 30.33 in SE 1.0 mph 1.0 mph 81% 0.00 in 35 W/m2
08:06 48.1 °F 42.5 °F 30.33 in East 1.0 mph 2.0 mph 81% 0.00 in 40 W/m2
08:10 48.2 °F 42.6 °F 30.33 in ESE 1.0 mph 3.0 mph 81% 0.00 in 42 W/m2
08:16 48.2 °F 42.6 °F 30.33 in East 2.0 mph 3.0 mph 81% 0.00 in 44 W/m2
08:22 48.1 °F 42.5 °F 30.33 in SE 1.0 mph 3.0 mph 81% 0.00 in 37 W/m2
08:28 48.0 °F 42.1 °F 30.33 in ENE 1.0 mph 3.0 mph 80% 0.00 in 39 W/m2
08:34 48.0 °F 42.1 °F 30.33 in ESE 1.0 mph 3.0 mph 80% 0.00 in 46 W/m2
08:40 48.0 °F 42.1 °F 30.33 in ESE 1.0 mph 2.0 mph 80% 0.00 in 60 W/m2
08:46 48.1 °F 42.5 °F 30.33 in ESE 1.0 mph 2.0 mph 81% 0.00 in 72 W/m2
08:52 48.3 °F 42.7 °F 30.33 in SE 1.0 mph 1.0 mph 81% 0.00 in 104 W/m2
08:58 49.0 °F 42.8 °F 30.33 in East 1.0 mph 2.0 mph 79% 0.00 in 146 W/m2
09:04 49.7 °F 43.1 °F 30.33 in NE 2.0 mph 2.0 mph 78% 0.00 in 107 W/m2
09:10 50.2 °F 43.3 °F 30.33 in East 2.0 mph 2.0 mph 77% 0.00 in 98 W/m2
09:16 50.6 °F 43.0 °F 30.33 in South 3.0 mph 7.0 mph 75% 0.00 in 246 W/m2
09:22 51.2 °F 43.5 °F 30.32 in NNE 3.0 mph 5.0 mph 75% 0.00 in 213 W/m2
09:28 51.8 °F 43.8 °F 30.32 in SSE 4.0 mph 5.0 mph 74% 0.00 in 417 W/m2
09:34 52.1 °F 43.3 °F 30.32 in SE 4.0 mph 9.0 mph 72% 0.00 in 420 W/m2
09:40 51.6 °F 42.9 °F 30.32 in SE 5.0 mph 5.0 mph 72% 0.00 in 141 W/m2
09:46 51.4 °F 43.4 °F 30.32 in SE 4.0 mph 5.0 mph 74% 0.00 in 121 W/m2
09:52 51.5 °F 43.5 °F 30.32 in ENE 3.0 mph 3.0 mph 74% 0.00 in 163 W/m2
09:58 52.4 °F 44.0 °F 30.32 in ESE 3.0 mph 3.0 mph 73% 0.00 in 258 W/m2
10:04 52.7 °F 43.6 °F 30.32 in ESE 3.0 mph 5.0 mph 71% 0.00 in 334 W/m2
10:10 53.5 °F 44.3 °F 30.32 in SE 4.0 mph 4.0 mph 71% 0.00 in 550 W/m2
10:16 54.8 °F 45.6 °F 30.32 in WSW 4.0 mph 5.0 mph 71% 0.00 in 591 W/m2
10:22 54.5 °F 44.5 °F 30.32 in ENE 4.0 mph 5.0 mph 69% 0.00 in 592 W/m2
10:28 54.4 °F 44.4 °F 30.32 in South 4.0 mph 6.0 mph 69% 0.00 in 318 W/m2
10:34 53.7 °F 43.8 °F 30.31 in East 3.0 mph 4.0 mph 69% 0.00 in 197 W/m2
10:40 55.0 °F 45.0 °F 30.32 in East 3.0 mph 3.0 mph 69% 0.00 in 545 W/m2
10:46 55.2 °F 45.2 °F 30.31 in SE 2.0 mph 3.0 mph 69% 0.00 in 524 W/m2
10:52 55.6 °F 46.3 °F 30.31 in SSE 3.0 mph 4.0 mph 71% 0.00 in 545 W/m2
10:58 56.2 °F 46.2 °F 30.31 in SE 3.0 mph 4.0 mph 69% 0.00 in 684 W/m2
11:04 55.6 °F 45.2 °F 30.31 in ESE 2.0 mph 7.0 mph 68% 0.00 in 322 W/m2
11:10 55.4 °F 44.6 °F 30.31 in NE 2.0 mph 3.0 mph 67% 0.00 in 186 W/m2
11:16 55.3 °F 44.9 °F 30.30 in ENE 2.0 mph 3.0 mph 68% 0.00 in 165 W/m2
11:18 55.3 °F 45.7 °F 30.30 in ENE 2.0 mph 3.0 mph 70% 0.00 in 162 W/m2
11:24 55.3 °F 45.3 °F 30.30 in SE 2.0 mph 5.0 mph 69% 0.00 in 237 W/m2
11:30 57.0 °F 46.1 °F 30.30 in SSE 2.0 mph 2.0 mph 67% 0.00 in 624 W/m2
11:36 57.7 °F 47.6 °F 30.30 in ESE 3.0 mph 3.0 mph 69% 0.00 in 608 W/m2
11:42 57.8 °F 45.7 °F 30.29 in ENE 3.0 mph 5.0 mph 64% 0.00 in 200 W/m2
11:48 57.0 °F 45.7 °F 30.29 in SSE 3.0 mph 6.0 mph 66% 0.00 in 220 W/m2
11:54 57.2 °F 46.7 °F 30.29 in SE 2.0 mph 3.0 mph 68% 0.00 in 322 W/m2
12:00 58.4 °F 47.9 °F 30.28 in ENE 1.0 mph 2.0 mph 68% 0.00 in 299 W/m2
12:06 59.3 °F 47.5 °F 30.28 in SSW 3.0 mph 9.0 mph 65% 0.00 in 322 W/m2
12:12 59.7 °F 47.1 °F 30.28 in SSE 4.0 mph 4.0 mph 63% 0.00 in 278 W/m2
12:18 60.1 °F 46.6 °F 30.28 in SW 3.0 mph 7.0 mph 61% 0.00 in 313 W/m2
12:24 60.2 °F 47.1 °F 30.27 in SSE 5.0 mph 11.0 mph 62% 0.00 in 330 W/m2
12:30 60.7 °F 47.6 °F 30.27 in South 6.0 mph 7.0 mph 62% 0.00 in 733 W/m2
12:36 60.6 °F 47.1 °F 30.27 in SSE 7.0 mph 14.0 mph 61% 0.00 in 373 W/m2
12:42 61.1 °F 47.1 °F 30.27 in SSE 7.0 mph 7.0 mph 60% 0.00 in 295 W/m2
12:48 60.7 °F 47.2 °F 30.27 in SSE 6.0 mph 12.0 mph 61% 0.00 in 299 W/m2
12:54 60.5 °F 47.0 °F 30.26 in South 6.0 mph 10.0 mph 61% 0.00 in 304 W/m2
13:00 60.8 °F 47.7 °F 30.26 in South 6.0 mph 6.0 mph 62% 0.00 in 334 W/m2
13:06 61.1 °F 47.5 °F 30.26 in SSE 5.0 mph 6.0 mph 61% 0.00 in 330 W/m2
13:12 61.0 °F 47.9 °F 30.25 in South 5.0 mph 6.0 mph 62% 0.00 in 223 W/m2
13:18 61.0 °F 47.9 °F 30.25 in South 6.0 mph 10.0 mph 62% 0.00 in 329 W/m2
13:24 61.3 °F 48.2 °F 30.25 in SE 7.0 mph 10.0 mph 62% 0.00 in 272 W/m2
13:30 61.3 °F 48.2 °F 30.25 in SE 7.0 mph 10.0 mph 62% 0.00 in 339 W/m2
13:36 61.7 °F 49.0 °F 30.24 in SSE 7.0 mph 10.0 mph 63% 0.00 in 279 W/m2
13:42 61.4 °F 48.7 °F 30.24 in South 8.0 mph 13.0 mph 63% 0.00 in 241 W/m2
13:48 61.5 °F 48.4 °F 30.24 in SSE 7.0 mph 13.0 mph 62% 0.00 in 285 W/m2
13:54 61.9 °F 49.2 °F 30.24 in SE 6.0 mph 8.0 mph 63% 0.00 in 269 W/m2
14:00 62.1 °F 49.8 °F 30.24 in SSW 6.0 mph 6.0 mph 64% 0.00 in 329 W/m2
14:06 62.5 °F 49.3 °F 30.24 in SSE 6.0 mph 13.0 mph 62% 0.00 in 309 W/m2
14:14 62.7 °F 49.1 °F 30.23 in South 6.0 mph 6.0 mph 61% 0.00 in 260 W/m2
14:20 62.7 °F 49.9 °F 30.23 in South 6.0 mph 9.0 mph 63% 0.00 in 315 W/m2
14:26 62.8 °F 50.0 °F 30.23 in SSE 6.0 mph 12.0 mph 63% 0.00 in 274 W/m2
14:32 62.7 °F 49.5 °F 30.22 in SW 6.0 mph 7.0 mph 62% 0.00 in 251 W/m2
14:38 63.0 °F 50.2 °F 30.22 in South 5.0 mph 7.0 mph 63% 0.00 in 243 W/m2
14:44 63.3 °F 50.9 °F 30.22 in SSW 4.0 mph 6.0 mph 64% 0.00 in 220 W/m2
14:50 63.2 °F 50.4 °F 30.22 in SSW 4.0 mph 4.0 mph 63% 0.00 in 169 W/m2
14:56 63.1 °F 50.3 °F 30.22 in SSW 5.0 mph 5.0 mph 63% 0.00 in 169 W/m2
15:02 63.0 °F 50.6 °F 30.22 in South 5.0 mph 7.0 mph 64% 0.00 in 158 W/m2
15:08 62.7 °F 50.3 °F 30.22 in SW 6.0 mph 7.0 mph 64% 0.00 in 84 W/m2
15:14 62.6 °F 50.2 °F 30.22 in South 5.0 mph 6.0 mph 64% 0.00 in 88 W/m2
15:20 62.5 °F 50.6 °F 30.22 in SSE 4.0 mph 4.0 mph 65% 0.00 in 111 W/m2
15:26 62.6 °F 50.7 °F 30.22 in SSE 4.0 mph 10.0 mph 65% 0.00 in 114 W/m2
15:32 62.6 °F 50.7 °F 30.22 in South 5.0 mph 8.0 mph 65% 0.00 in 100 W/m2
15:38 62.5 °F 50.6 °F 30.22 in SSE 5.0 mph 8.0 mph 65% 0.00 in 127 W/m2
15:44 62.6 °F 50.7 °F 30.22 in South 5.0 mph 7.0 mph 65% 0.00 in 113 W/m2
15:50 62.6 °F 50.7 °F 30.22 in SSW 5.0 mph 5.0 mph 65% 0.00 in 111 W/m2
15:56 62.7 °F 51.2 °F 30.22 in SSW 5.0 mph 7.0 mph 66% 0.00 in 181 W/m2
16:02 62.9 °F 51.4 °F 30.21 in SSW 5.0 mph 5.0 mph 66% 0.00 in 142 W/m2
16:08 62.9 °F 51.4 °F 30.21 in SSW 4.0 mph 8.0 mph 66% 0.00 in 118 W/m2
16:14 62.9 °F 51.4 °F 30.21 in South 5.0 mph 7.0 mph 66% 0.00 in 104 W/m2
16:20 62.7 °F 51.2 °F 30.20 in SSE 5.0 mph 8.0 mph 66% 0.00 in 107 W/m2
16:26 62.7 °F 51.6 °F 30.20 in SSE 6.0 mph 8.0 mph 67% 0.00 in 84 W/m2
16:32 62.5 °F 51.4 °F 30.21 in SSE 5.0 mph 6.0 mph 67% 0.00 in 90 W/m2
16:38 62.5 °F 51.4 °F 30.21 in South 4.0 mph 6.0 mph 67% 0.00 in 69 W/m2
16:44 62.5 °F 51.4 °F 30.21 in South 4.0 mph 7.0 mph 67% 0.00 in 46 W/m2
16:50 62.4 °F 51.3 °F 30.21 in SW 5.0 mph 5.0 mph 67% 0.00 in 46 W/m2
16:56 62.2 °F 51.1 °F 30.21 in ESE 6.0 mph 11.0 mph 67% 0.00 in 53 W/m2
17:02 62.0 °F 51.3 °F 30.21 in SE 6.0 mph 7.0 mph 68% 0.00 in 67 W/m2
17:08 62.0 °F 51.3 °F 30.21 in SSE 5.0 mph 7.0 mph 68% 0.00 in 72 W/m2
17:14 61.8 °F 51.1 °F 30.21 in SW 5.0 mph 7.0 mph 68% 0.00 in 56 W/m2
17:20 61.6 °F 50.9 °F 30.21 in SSW 6.0 mph 6.0 mph 68% 0.00 in 40 W/m2
17:26 61.5 °F 51.2 °F 30.20 in SE 5.0 mph 6.0 mph 69% 0.00 in 47 W/m2
17:32 61.4 °F 51.1 °F 30.21 in South 5.0 mph 7.0 mph 69% 0.00 in 30 W/m2
17:38 61.3 °F 51.0 °F 30.21 in SSE 5.0 mph 7.0 mph 69% 0.00 in 23 W/m2
17:44 61.2 °F 51.3 °F 30.21 in WSW 5.0 mph 5.0 mph 70% 0.00 in 23 W/m2
17:50 61.2 °F 50.9 °F 30.21 in SSE 4.0 mph 4.0 mph 69% 0.00 in 16 W/m2
17:56 61.2 °F 50.9 °F 30.20 in SSW 5.0 mph 8.0 mph 69% 0.00 in 16 W/m2
18:02 61.2 °F 50.9 °F 30.21 in SSW 4.0 mph 6.0 mph 69% 0.00 in 16 W/m2
18:08 61.1 °F 50.8 °F 30.21 in SSE 4.0 mph 7.0 mph 69% 0.00 in 11 W/m2
18:14 61.1 °F 51.2 °F 30.21 in South 4.0 mph 6.0 mph 70% 0.00 in 7 W/m2
18:20 61.0 °F 51.1 °F 30.21 in SSW 4.0 mph 4.0 mph 70% 0.00 in 0 W/m2
18:26 60.9 °F 51.0 °F 30.22 in SSE 4.0 mph 6.0 mph 70% 0.00 in 0 W/m2
18:32 60.9 °F 51.0 °F 30.21 in South 3.0 mph 3.0 mph 70% 0.00 in 0 W/m2
18:38 60.8 °F 51.3 °F 30.21 in South 3.0 mph 5.0 mph 71% 0.00 in 0 W/m2
18:44 60.8 °F 51.3 °F 30.21 in South 3.0 mph 4.0 mph 71% 0.00 in 0 W/m2
18:50 60.8 °F 51.3 °F 30.22 in South 3.0 mph 3.0 mph 71% 0.00 in 0 W/m2
18:56 60.8 °F 51.3 °F 30.21 in South 3.0 mph 5.0 mph 71% 0.00 in 0 W/m2
19:02 60.8 °F 51.3 °F 30.21 in SW 3.0 mph 5.0 mph 71% 0.00 in 0 W/m2
19:08 60.7 °F 51.2 °F 30.22 in SSE 2.0 mph 5.0 mph 71% 0.00 in 0 W/m2
19:14 60.6 °F 51.5 °F 30.21 in SE 2.0 mph 4.0 mph 72% 0.00 in 0 W/m2
19:20 60.5 °F 51.4 °F 30.21 in SSE 2.0 mph 3.0 mph 72% 0.00 in 0 W/m2
19:26 60.5 °F 51.4 °F 30.21 in SSE 2.0 mph 5.0 mph 72% 0.00 in 0 W/m2
19:32 60.4 °F 51.3 °F 30.21 in SSW 3.0 mph 4.0 mph 72% 0.00 in 0 W/m2
19:38 60.5 °F 51.4 °F 30.21 in South 3.0 mph 4.0 mph 72% 0.00 in 0 W/m2
19:44 60.5 °F 51.4 °F 30.21 in SSE 3.0 mph 5.0 mph 72% 0.00 in 0 W/m2
19:50 60.5 °F 51.4 °F 30.21 in SSE 3.0 mph 3.0 mph 72% 0.00 in 0 W/m2
19:56 60.4 °F 51.3 °F 30.21 in South 3.0 mph 7.0 mph 72% 0.00 in 0 W/m2
20:02 60.4 °F 51.3 °F 30.21 in SSE 4.0 mph 4.0 mph 72% 0.00 in 0 W/m2
20:08 60.4 °F 51.7 °F 30.21 in South 4.0 mph 6.0 mph 73% 0.00 in 0 W/m2
20:14 60.3 °F 51.6 °F 30.20 in South 3.0 mph 4.0 mph 73% 0.00 in 0 W/m2
20:20 60.1 °F 51.4 °F 30.20 in SSE 3.0 mph 3.0 mph 73% 0.00 in 0 W/m2
20:26 60.1 °F 51.4 °F 30.20 in SSE 3.0 mph 4.0 mph 73% 0.00 in 0 W/m2
20:32 60.1 °F 51.8 °F 30.20 in SSE 3.0 mph 3.0 mph 74% 0.00 in 0 W/m2
20:38 60.1 °F 51.8 °F 30.20 in SSW 3.0 mph 4.0 mph 74% 0.00 in 0 W/m2
20:44 60.0 °F 51.7 °F 30.20 in South 2.0 mph 3.0 mph 74% 0.00 in 0 W/m2
20:50 59.9 °F 52.0 °F 30.20 in South 2.0 mph 2.0 mph 75% 0.00 in 0 W/m2
20:56 59.9 °F 52.0 °F 30.21 in SSE 2.0 mph 2.0 mph 75% 0.00 in 0 W/m2
21:02 59.9 °F 52.0 °F 30.20 in SSE 1.0 mph 1.0 mph 75% 0.00 in 0 W/m2
21:08 60.0 °F 52.1 °F 30.21 in SSE 2.0 mph 3.0 mph 75% 0.00 in 0 W/m2
21:14 60.0 °F 52.1 °F 30.20 in SSE 3.0 mph 3.0 mph 75% 0.00 in 0 W/m2
21:20 60.0 °F 52.1 °F 30.20 in South 2.0 mph 2.0 mph 75% 0.00 in 0 W/m2
21:26 60.1 °F 52.5 °F 30.20 in SSE 2.0 mph 3.0 mph 76% 0.00 in 0 W/m2
21:32 60.1 °F 52.5 °F 30.20 in South 3.0 mph 3.0 mph 76% 0.00 in 0 W/m2
21:38 60.2 °F 52.2 °F 30.21 in SSE 3.0 mph 4.0 mph 75% 0.00 in 0 W/m2
21:44 60.4 °F 52.4 °F 30.20 in SSE 3.0 mph 5.0 mph 75% 0.00 in 0 W/m2
21:50 60.6 °F 52.3 °F 30.20 in South 3.0 mph 3.0 mph 74% 0.00 in 0 W/m2
21:56 60.5 °F 52.2 °F 30.21 in South 2.0 mph 3.0 mph 74% 0.00 in 0 W/m2
22:02 60.5 °F 52.5 °F 30.20 in South 2.0 mph 5.0 mph 75% 0.00 in 0 W/m2
22:08 60.5 °F 52.5 °F 30.20 in SSE 3.0 mph 5.0 mph 75% 0.00 in 0 W/m2
22:14 60.5 °F 52.5 °F 30.20 in South 3.0 mph 4.0 mph 75% 0.00 in 0 W/m2
22:20 60.4 °F 52.4 °F 30.20 in South 2.0 mph 2.0 mph 75% 0.00 in 0 W/m2
22:26 60.4 °F 52.4 °F 30.21 in SSE 2.0 mph 6.0 mph 75% 0.00 in 0 W/m2
22:32 60.4 °F 52.4 °F 30.21 in SW 2.0 mph 3.0 mph 75% 0.00 in 0 W/m2
22:38 60.4 °F 52.4 °F 30.21 in SSE 3.0 mph 4.0 mph 75% 0.00 in 0 W/m2
22:44 60.4 °F 52.8 °F 30.20 in SE 3.0 mph 5.0 mph 76% 0.00 in 0 W/m2
22:50 60.4 °F 52.8 °F 30.20 in SSW 4.0 mph 4.0 mph 76% 0.00 in 0 W/m2
22:56 60.4 °F 52.8 °F 30.21 in South 3.0 mph 4.0 mph 76% 0.00 in 0 W/m2
23:02 60.5 °F 52.9 °F 30.21 in SW 4.0 mph 4.0 mph 76% 0.00 in 0 W/m2
23:08 60.5 °F 52.9 °F 30.20 in SSE 4.0 mph 5.0 mph 76% 0.00 in 0 W/m2
23:16 60.7 °F 53.1 °F 30.20 in South 5.0 mph 9.0 mph 76% 0.00 in 0 W/m2
23:22 60.7 °F 53.1 °F 30.20 in SSW 5.0 mph 5.0 mph 76% 0.00 in 0 W/m2
23:28 60.7 °F 53.1 °F 30.20 in SW 4.0 mph 5.0 mph 76% 0.00 in 0 W/m2
23:34 60.7 °F 53.1 °F 30.20 in SW 4.0 mph 7.0 mph 76% 0.00 in 0 W/m2
23:40 60.7 °F 53.1 °F 30.20 in SSW 4.0 mph 7.0 mph 76% 0.00 in 0 W/m2
23:46 60.7 °F 53.1 °F 30.20 in WSW 5.0 mph 7.0 mph 76% 0.00 in 0 W/m2
23:52 60.6 °F 53.0 °F 30.20 in South 4.0 mph 6.0 mph 76% 0.00 in 0 W/m2
23:58 60.6 °F 53.0 °F 30.20 in SW 4.0 mph 11.0 mph 76% 0.00 in 0 W/m2
Country Meadow, Clay, NY, USA
Compliments of Weather Underground - 2 mb